Tracking 19846 objects as of 19-Sep-2019
HD Live streaming from Space Station
objects crossing your sky now

NARSSCUBE-2

Track NARSSCUBE-2 now!
10-day predictions


NORAD ID: 44418
Int'l Code: 2019-022H
Perigee: 475.6 km
Apogee: 492.6 km
Inclination: 51.6 °
Period: 94.1 minutes
Semi major axis: 6855 km
RCS: Unknown
Launch date: April 17, 2019
Source: Egypt (EGYP)
Launch site: WALLOPS ISLAND (WLPIS)
aabbcc
Your satellite tracking list
Your tracking list is empty




NASA's NSSDC Master Catalog

Two Line Element Set (TLE):
1 44418U 19022H   19261.86575780 +.00001078 +00000-0 +49455-4 0  9997
2 44418 051.6431 263.3093 0012423 059.1565 301.0636 15.29625545006540
Source of the keplerian elements: AFSPC